[[{"header":{"parameterUnit":"m.s-1","parameterCategory":2,"la1":30.2991,"la2":30.254,"lo1":-89.0895,"lo2":-89.0444,"dy":0.0017,"dx":0.0017,"nx":28,"ny":28,"refTime":"2025-03-25T21:00:00:Z","depth":"0","parameterNumber":2,"parameterNumberName":"U-component_of_CURRENTS"},"data":[0,0,0,0,0,0,0,0,0,0,0,0,0,0,0,0,0,0,0,0,0,0,0,0,0,0,0,0,0,0,0,0,0,0,0,0,0,0,0,0,0,0,0,0,0,0,0,0,0,0,0,0,0,0,0,0,0,0,0.2628,0.2628,0,0.2608,0.2607,0.2607,0.2594,0.2595,0.2595,0.2595,0.2576,0.2575,0.2575,0,0,0,0,0,0,0,0,0,0,0,0,0,0.2703,0.2701,0.2628,0.2628,0.2628,0.2608,0.2607,0.2607,0.2594,0.2595,0.2595,0.2595,0.2576,0.2575,0.2574,0,0,0,0,0,0,0,0,0,0,0,0,0,0.2672,0.2701,0.2627,0.2622,0.2621,0.2608,0.2607,0.2607,0.2594,0.2595,0.2595,0.2595,0.2577,0.2575,0.2574,0.2559,0,0,0.2571,0.257,0,0,0,0,0,0,0,0,0.2674,0.2669,0.2623,0.2622,0.2622,0.2607,0.2627,0.2592,0.2594,0.2601,0.2595,0.2596,0.2589,0.2587,0.2577,0.2559,0.2558,0.2571,0.257,0.257,0.2569,0,0,0,0,0,0,0,0.2676,0.267,0.2616,0.2623,0.2622,0.2638,0.2633,0.2621,0.259,0.26,0.26,0.2604,0.2588,0.2578,0.2576,0.2557,0.2571,0.257,0.2569,0.2569,0.2529,0.2528,0,0,0,0,0,0,0.2682,0.2671,0.2617,0.2616,0.2653,0.2636,0.263,0.2608,0.259,0.2589,0.2603,0.2603,0.258,0.2578,0.2576,0.2598,0.257,0.2569,0.2568,0.2529,0.2529,0.2528,0,0,0,0,0,0,0.2683,0.2676,0.2618,0.2648,0.2642,0.2634,0.261,0.2608,0.2609,0.2593,0.2591,0.2609,0.258,0.2577,0.2571,0.2596,0.2568,0.2567,0.2529,0.2529,0.2528,0.2617,0,0,0,0,0,0,0.2685,0.2676,0.2667,0.2647,0.2641,0.2629,0.261,0.2607,0.2612,0.2612,0.2597,0.2594,0.258,0.2573,0.257,0.2594,0.2566,0.253,0.2529,0.2528,0.2615,0.262,0.2624,0,0,0,0,0,0.2687,0.2677,0.2666,0.2661,0.2626,0.263,0.2628,0.2622,0.2612,0.2622,0.2602,0.2596,0.2566,0.2572,0.2569,0.2593,0.253,0.2529,0.2529,0.2613,0.2619,0.2624,0,0,0,0,0,0,0.2695,0.2675,0.2662,0.2642,0.2645,0.263,0.2636,0.2629,0.2619,0.2617,0.2595,0.2591,0.2597,0.2571,0.2578,0.2573,0.2545,0.2544,0.261,0.2616,0.262,0.2653,0.2565,0,0,0,0,0,0.2694,0.2687,0.2672,0.2659,0.266,0.2648,0.2649,0.2647,0.2635,0.2631,0.2618,0.2597,0.2587,0.2584,0.2569,0.2568,0.2589,0.2575,0.258,0.2584,0.2605,0.266,0.2673,0.2525,0.2525,0.2525,0,0,0.2694,0.2683,0.2678,0.2663,0.2659,0.2666,0.2649,0.2658,0.267,0.2631,0.2638,0.2619,0.2589,0.2592,0.2592,0.2577,0.2636,0.2583,0.2588,0.2607,0.2661,0.2676,0.2689,0.2525,0.2525,0.2525,0,0,0.2706,0.2679,0.2686,0.2689,0.2695,0.2689,0.2696,0.2688,0.2693,0.2692,0.2671,0.2669,0.2639,0.2638,0.2628,0.2645,0.2662,0.2629,0.2684,0.2736,0.2751,0.2763,0.2818,0.2834,0.2629,0.2629,0.263,0,0.2713,0.2701,0.2693,0.2704,0.2709,0.2701,0.2715,0.272,0.2714,0.2728,0.2705,0.2687,0.2666,0.2686,0.269,0.2663,0.2695,0.2673,0.2749,0.2762,0.2774,0.2826,0.2843,0.2634,0.2633,0.2633,0.2632,0,0.2731,0.2725,0.2731,0.2737,0.2747,0.2756,0.2764,0.2779,0.2774,0.278,0.2801,0.2772,0.2766,0.2754,0.2728,0.2791,0.2789,0.2758,0.275,0.2795,0.2845,0.2862,0.264,0.2638,0.2637,0.2636,0,0,0.2731,0.2742,0.2741,0.2756,0.2762,0.2776,0.2803,0.2831,0.2862,0.2859,0.2899,0.2881,0.2878,0.2866,0.284,0.2879,0.2985,0.2859,0.286,0.2941,0.3119,0.2953,0.2956,0.2978,0.2981,0.2983,0.3126,0,0.2746,0.2769,0.277,0.28,0.2814,0.2822,0.2851,0.2883,0.2898,0.2938,0.294,0.2958,0.2917,0.2918,0.2958,0.2975,0.3032,0.295,0.3039,0.3042,0.2912,0.297,0.276,0.2854,0.3142,0.3145,0.3147,0,0.2754,0.2774,0.2799,0.2838,0.2846,0.2867,0.2917,0.2945,0.3002,0.3017,0.3049,0.3048,0.3103,0.3052,0.315,0.3104,0.3129,0.3141,0.3147,0.2975,0.2906,0.285,0.2874,0.2778,0.3173,0.3171,0.3169,0,0.2759,0.279,0.2813,0.2822,0.2867,0.2893,0.292,0.2972,0.3007,0.3076,0.3102,0.3163,0.3188,0.3243,0.3246,0.3223,0.335,0.3316,0.3202,0.3191,0.3019,0.2986,0.2979,0.3409,0.3409,0.3409,0.3408,0,0.2764,0.279,0.282,0.2838,0.289,0.2913,0.2972,0.301,0.3065,0.3117,0.3146,0.3191,0.3239,0.3292,0.3309,0.3297,0.3405,0.3235,0.3219,0.3038,0.3006,0.2914,0.2896,0.3414,0.3413,0.3412,0.3411,0,0.2782,0.2783,0.283,0.2878,0.2893,0.2938,0.2995,0.3043,0.3084,0.3152,0.3175,0.3247,0.3299,0.3321,0.3406,0.3349,0.3247,0.3337,0.3111,0.3063,0.2808,0.2801,0.2693,0.2634,0.3247,0.3243,0.3241,0,0.279,0.2815,0.2867,0.289,0.2917,0.2971,0.3011,0.3055,0.3096,0.3179,0.3217,0.3274,0.3289,0.3324,0.3236,0.3219,0.3152,0.3011,0.2903,0.2777,0.2763,0.2669,0.2624,0.2738,0.2731,0.2726,0.2722,0,0.2834,0.2853,0.2892,0.2945,0.2982,0.3017,0.3066,0.3091,0.3144,0.317,0.3203,0.3214,0.3188,0.3036,0.2969,0.2937,0.2807,0.2894,0.2839,0.2422,0.225,0.2189,0.268,0.2673,0.2678,0.2682,0.2684,0.2686,0.287,0.2914,0.2956,0.3,0.3035,0.3049,0.3026,0.3068,0.3086,0.3047,0.3144,0.3041,0.2864,0.2708,0.2665,0.2376,0.2475,0.2253,0.2283,0.2222,0.2054,0.242,0.2327,0.2329,0.2332,0.2334,0.2336,0,0.29,0.2948,0.3005,0.3028,0.3032,0.3045,0.3044,0.2959,0.2914,0.2898,0.2859,0.259,0.2392,0.2224,0.1915,0.1785,0.1731,0.1729,0.1589,0.1603,0.1992,0.1853,0.1557,0.1557,0.1557,0.1557,0.1558,0.1558,0.2921,0.2969,0.2995,0.2995,0.2994,0.2895,0.2844,0.273,0.2647,0.2418,0.221,0.2141,0.1919,0.1633,0.139,0.1359,0.1298,0.1153,0.1278,0.157,0.1623,0.1672,0.1536,0.1179,0.1179,0.0761,0.0758,0.0756]},{"header":{"parameterUnit":"m.s-1","parameterCategory":2,"la1":30.2991,"la2":30.254,"lo1":-89.0895,"lo2":-89.0444,"dy":0.0017,"dx":0.0017,"nx":28,"ny":28,"refTime":"2025-03-25T21:00:00:Z","depth":"0","parameterNumber":3,"parameterNumberName":"V-component_of_CURRENTS"},"data":[0,0,0,0,0,0,0,0,0,0,0,0,0,0,0,0,0,0,0,0,0,0,0,0,0,0,0,0,0,0,0,0,0,0,0,0,0,0,0,0,0,0,0,0,0,0,0,0,0,0,0,0,0,0,0,0,0,0,-0.0212,-0.0212,0,-0.022,-0.022,-0.022,-0.0234,-0.0234,-0.0235,-0.0235,-0.0288,-0.0289,-0.029,0,0,0,0,0,0,0,0,0,0,0,0,0,-0.0263,-0.0262,-0.0212,-0.0212,-0.0212,-0.022,-0.022,-0.022,-0.0234,-0.0234,-0.0235,-0.0235,-0.0287,-0.0289,-0.029,0,0,0,0,0,0,0,0,0,0,0,0,0,-0.0253,-0.0261,-0.0212,-0.022,-0.0221,-0.022,-0.022,-0.022,-0.0234,-0.0234,-0.0235,-0.0235,-0.0287,-0.0289,-0.029,-0.0294,0,0,-0.0296,-0.0296,0,0,0,0,0,0,0,0,-0.0254,-0.0251,-0.0219,-0.0219,-0.022,-0.0226,-0.0257,-0.0247,-0.0234,-0.0229,-0.0235,-0.0235,-0.0271,-0.0274,-0.0274,-0.0297,-0.0299,-0.0296,-0.0297,-0.0298,-0.0298,0,0,0,0,0,0,0,-0.0254,-0.0251,-0.0216,-0.0219,-0.022,-0.0241,-0.024,-0.0256,-0.0249,-0.023,-0.0231,-0.0231,-0.0272,-0.0273,-0.0276,-0.03,-0.0296,-0.0297,-0.0298,-0.0299,-0.0294,-0.0293,0,0,0,0,0,0,-0.0249,-0.0251,-0.0215,-0.0216,-0.0238,-0.024,-0.0238,-0.0224,-0.0248,-0.0251,-0.0231,-0.0231,-0.0269,-0.0274,-0.0278,-0.0265,-0.0298,-0.0299,-0.03,-0.0296,-0.0294,-0.0293,0,0,0,0,0,0,-0.025,-0.0245,-0.0215,-0.0235,-0.0232,-0.0238,-0.0223,-0.0224,-0.0225,-0.0248,-0.0253,-0.023,-0.027,-0.0275,-0.0282,-0.0268,-0.03,-0.0302,-0.0297,-0.0295,-0.0293,-0.0251,0,0,0,0,0,0,-0.0251,-0.0245,-0.0238,-0.0234,-0.0231,-0.021,-0.0222,-0.0224,-0.0224,-0.0226,-0.0249,-0.0254,-0.0271,-0.0279,-0.0283,-0.0271,-0.0303,-0.0298,-0.0296,-0.0294,-0.0254,-0.0248,-0.0243,0,0,0,0,0,-0.0252,-0.0239,-0.0237,-0.0234,-0.0219,-0.021,-0.021,-0.0217,-0.0224,-0.022,-0.0231,-0.0253,-0.0268,-0.028,-0.0285,-0.0273,-0.03,-0.0297,-0.0294,-0.0256,-0.0249,-0.0243,0,0,0,0,0,0,-0.0255,-0.0239,-0.0237,-0.0219,-0.0213,-0.0212,-0.0211,-0.0214,-0.022,-0.0224,-0.0245,-0.025,-0.0248,-0.0264,-0.0276,-0.0261,-0.0285,-0.0283,-0.0254,-0.0247,-0.0242,-0.0231,-0.0305,0,0,0,0,0,-0.0252,-0.0239,-0.0228,-0.0213,-0.0209,-0.0209,-0.0209,-0.0212,-0.0214,-0.0217,-0.0229,-0.0239,-0.0241,-0.0247,-0.0254,-0.0253,-0.0236,-0.0245,-0.0239,-0.0235,-0.0228,-0.0175,-0.0164,-0.0284,-0.0284,-0.0284,0,0,-0.0249,-0.0239,-0.0232,-0.0214,-0.021,-0.0192,-0.021,-0.0205,-0.0191,-0.0223,-0.0212,-0.0224,-0.0235,-0.0228,-0.0228,-0.0241,-0.019,-0.0231,-0.0227,-0.0223,-0.0171,-0.0159,-0.0149,-0.0282,-0.0283,-0.0283,0,0,-0.0233,-0.0225,-0.0207,-0.0196,-0.0188,-0.0187,-0.0183,-0.0178,-0.0179,-0.0171,-0.0184,-0.0181,-0.0194,-0.019,-0.0191,-0.0159,-0.0161,-0.0166,-0.0134,-0.0082,-0.0072,-0.0062,-0.0018,-0.0005,-0.0164,-0.0164,-0.0164,0,-0.0234,-0.02,-0.0203,-0.0178,-0.0168,-0.0179,-0.0156,-0.0153,-0.0152,-0.0151,-0.0162,-0.0154,-0.0168,-0.0147,-0.0136,-0.0146,-0.0121,-0.0161,-0.0074,-0.0065,-0.0056,-0.0013,0.0001,-0.0162,-0.0162,-0.0162,-0.0163,0,-0.0195,-0.0171,-0.0159,-0.0129,-0.0122,-0.0105,-0.01,-0.0097,-0.0103,-0.01,-0.0087,-0.0095,-0.0089,-0.009,-0.0107,-0.0055,-0.0059,-0.0072,-0.0091,-0.0041,0.0001,0.0014,-0.0158,-0.0159,-0.016,-0.0161,0,0,-0.0187,-0.0142,-0.0136,-0.012,-0.0095,-0.0089,-0.0066,-0.0052,-0.0038,-0.0038,-0.001,-0.0011,-0.002,-0.002,-0.0034,0.0004,0.0086,-0.0009,-0.0008,0.0035,0.0201,0.0177,0.0189,0.0088,0.009,0.0092,0.0207,0,-0.0157,-0.0107,-0.0091,-0.0053,-0.0031,-0.0031,-0.001,-0.0003,0.0002,0.0025,0.0024,0.0044,0.001,0.0017,0.005,0.0081,0.0122,0.0055,0.0146,0.0149,0.0121,0.0204,0.0204,0.0304,0.0221,0.0223,0.0224,0,-0.0119,-0.0095,-0.0048,-0.0022,-0.0013,0.0006,0.0025,0.0043,0.0069,0.0075,0.0095,0.0099,0.0149,0.0115,0.0204,0.0164,0.0186,0.0207,0.0212,0.0183,0.015,0.024,0.0332,0.0282,0.0245,0.0244,0.0242,0,-0.012,-0.0068,-0.0036,-0.0021,0.0012,0.0021,0.0031,0.0053,0.0077,0.0115,0.0152,0.0186,0.024,0.0267,0.0304,0.0265,0.041,0.0364,0.0363,0.0361,0.0376,0.037,0.043,0.0434,0.0434,0.0434,0.0433,0,-0.0095,-0.0075,-0.0035,-0.002,0.0011,0.0023,0.0056,0.007,0.0113,0.0181,0.0179,0.0269,0.0287,0.0362,0.0356,0.0418,0.0459,0.0394,0.04,0.0389,0.0385,0.035,0.0308,0.0438,0.0437,0.0436,0.0436,0,-0.0104,-0.0071,-0.0037,0.0,0.0014,0.003,0.0076,0.0109,0.0143,0.0242,0.0268,0.0366,0.0482,0.0485,0.0568,0.0514,0.0528,0.0551,0.053,0.0531,0.044,0.0399,0.0483,0.0459,0.0568,0.0568,0.0568,0,-0.01,-0.008,-0.0026,0.0007,0.0024,0.0055,0.0091,0.012,0.0179,0.0331,0.0403,0.0533,0.0665,0.0746,0.0691,0.068,0.0607,0.062,0.0533,0.046,0.0421,0.0398,0.037,0.0579,0.058,0.058,0.058,0,-0.0094,-0.0073,-0.0041,0.0026,0.0071,0.0123,0.0183,0.0237,0.0323,0.0431,0.0632,0.0751,0.084,0.0871,0.0805,0.0762,0.0573,0.0621,0.0574,0.0463,0.0421,0.0392,0.0466,0.0582,0.0582,0.0582,0.0581,0.0581,-0.008,-0.0054,0.0005,0.0062,0.0124,0.0215,0.0287,0.0383,0.0516,0.0728,0.0814,0.1025,0.099,0.0931,0.0841,0.0631,0.0632,0.0547,0.0517,0.051,0.0449,0.0514,0.0606,0.0606,0.0606,0.0606,0.0606,0,-0.0033,-0.0004,0.0046,0.0142,0.0229,0.0247,0.0379,0.0479,0.0684,0.0876,0.1061,0.1173,0.1109,0.0968,0.0702,0.0554,0.0484,0.0468,0.0441,0.0423,0.0521,0.0478,0.0514,0.0514,0.0514,0.0514,0.0514,0.0514,0.0,0.006,0.0079,0.0229,0.0303,0.0443,0.0537,0.0692,0.0845,0.1106,0.1251,0.1351,0.1242,0.0832,0.0552,0.0469,0.0373,0.0353,0.031,0.0361,0.0366,0.037,0.0321,0.0323,0.0323,0.0228,0.0227,0.0226]}],[{"header":{"parameterUnit":"m.s-1","parameterCategory":2,"la1":30.2991,"la2":30.254,"lo1":-89.0895,"lo2":-89.0444,"dy":0.0017,"dx":0.0017,"nx":28,"ny":28,"refTime":"2025-03-25T21:00:00:Z","depth":"2","parameterNumber":2,"parameterNumberName":"U-component_of_CURRENTS"},"data":[0,0,0,0,0,0,0,0,0,0,0,0,0,0,0,0,0,0,0,0,0,0,0,0,0,0,0,0,0,0,0,0,0,0,0,0,0,0,0,0,0,0,0,0,0,0,0,0,0,0,0,0,0,0,0,0,0,0,0.1619,0.1618,0,0.1624,0.1625,0.1626,0.1655,0.1655,0.1655,0.1655,0.1625,0.1624,0.1623,0,0,0,0,0,0,0,0,0,0,0,0,0,0.1668,0.1668,0.1619,0.1618,0.1617,0.1624,0.1625,0.1626,0.1655,0.1655,0.1655,0.1655,0.1625,0.1624,0.1623,0,0,0,0,0,0,0,0,0,0,0,0,0,0.1666,0.1668,0.1619,0.1626,0.1626,0.1624,0.1625,0.1626,0.1655,0.1655,0.1655,0.1655,0.1625,0.1624,0.1623,0.162,0,0,0.162,0.1619,0,0,0,0,0,0,0,0,0.1666,0.1665,0.1626,0.1626,0.1626,0.1631,0.1631,0.1619,0.1655,0.1654,0.1655,0.1655,0.1618,0.1617,0.1632,0.1618,0.1617,0.162,0.1619,0.1619,0.1618,0,0,0,0,0,0,0,0.1666,0.1665,0.163,0.1625,0.1625,0.164,0.1641,0.163,0.1643,0.1654,0.1654,0.164,0.1619,0.1633,0.1631,0.1616,0.162,0.1619,0.1618,0.1618,0.1637,0.1638,0,0,0,0,0,0,0.1646,0.1665,0.163,0.1629,0.1636,0.1639,0.1639,0.1637,0.1644,0.1642,0.164,0.1641,0.1635,0.1632,0.163,0.1645,0.1619,0.1618,0.1617,0.1635,0.1637,0.1638,0,0,0,0,0,0,0.1647,0.1643,0.1629,0.164,0.1638,0.1637,0.1635,0.1637,0.1658,0.1632,0.1632,0.1659,0.1635,0.1631,0.1631,0.1643,0.1617,0.1616,0.1634,0.1636,0.1637,0.1662,0,0,0,0,0,0,0.1649,0.1644,0.1651,0.1639,0.1636,0.1622,0.1634,0.1637,0.1645,0.1647,0.1647,0.1644,0.1634,0.1633,0.163,0.1641,0.1615,0.1633,0.1635,0.1637,0.166,0.1664,0.1668,0,0,0,0,0,0.1651,0.1632,0.1652,0.1647,0.1641,0.1621,0.1623,0.1627,0.1646,0.165,0.166,0.1645,0.1645,0.1633,0.1629,0.164,0.1632,0.1634,0.1637,0.1658,0.1663,0.1668,0,0,0,0,0,0,0.1638,0.1632,0.1654,0.1632,0.1632,0.1622,0.1623,0.1634,0.165,0.1663,0.1652,0.1649,0.1656,0.1648,0.1635,0.1655,0.1639,0.1641,0.1656,0.1661,0.1665,0.169,0.1614,0,0,0,0,0,0.1644,0.1641,0.1637,0.1621,0.1627,0.1638,0.1637,0.1645,0.1645,0.1655,0.1655,0.1662,0.1664,0.1662,0.1661,0.1665,0.1691,0.1674,0.1678,0.1682,0.1702,0.1762,0.1774,0.1647,0.1647,0.1646,0,0,0.1643,0.1628,0.1634,0.1621,0.1632,0.1641,0.164,0.1639,0.1651,0.1646,0.1669,0.1673,0.167,0.168,0.1682,0.1672,0.173,0.1685,0.1688,0.1707,0.1766,0.1778,0.179,0.1648,0.1648,0.1648,0,0,0.162,0.1624,0.1629,0.1634,0.1636,0.164,0.1643,0.1653,0.1665,0.1686,0.1689,0.1709,0.1707,0.1713,0.1715,0.1744,0.1751,0.1737,0.1775,0.1832,0.1844,0.1854,0.1893,0.1907,0.1738,0.1738,0.1738,0,0.1633,0.1617,0.1623,0.1628,0.1626,0.1643,0.1651,0.1668,0.1677,0.1692,0.1697,0.1743,0.1732,0.1755,0.1767,0.1754,0.1784,0.175,0.1839,0.1849,0.186,0.1898,0.1912,0.174,0.1739,0.1739,0.1739,0,0.1618,0.162,0.1613,0.1637,0.1641,0.1638,0.1659,0.1681,0.1706,0.1727,0.1767,0.1779,0.181,0.1805,0.1794,0.1852,0.1849,0.1837,0.1825,0.1874,0.1911,0.1926,0.1742,0.1741,0.1741,0.174,0,0,0.1621,0.1612,0.1617,0.1623,0.1643,0.1638,0.1671,0.1694,0.174,0.1767,0.1813,0.1837,0.1867,0.1873,0.1867,0.1915,0.1999,0.1909,0.1911,0.1948,0.2125,0.198,0.1983,0.2005,0.2008,0.2011,0.2118,0,0.1619,0.1612,0.1608,0.1617,0.1623,0.1647,0.1679,0.1714,0.1761,0.1813,0.1842,0.1884,0.1882,0.1906,0.1958,0.1995,0.2042,0.1971,0.2074,0.2077,0.1942,0.1996,0.1819,0.1888,0.2132,0.2135,0.2137,0,0.1615,0.1605,0.1609,0.1611,0.1621,0.1638,0.1699,0.1729,0.1811,0.1853,0.1919,0.1945,0.2011,0.2,0.2125,0.2083,0.2113,0.214,0.2145,0.2016,0.196,0.1881,0.1906,0.2162,0.216,0.2158,0.2156,0,0.1598,0.16,0.1591,0.1596,0.1622,0.1638,0.1662,0.1752,0.18,0.1883,0.1938,0.2022,0.207,0.2145,0.2196,0.2177,0.2325,0.23,0.22,0.219,0.2062,0.2034,0.239,0.239,0.2389,0.2389,0.2389,0,0.1569,0.1567,0.1589,0.1584,0.161,0.1637,0.1702,0.1746,0.1844,0.192,0.196,0.2029,0.2115,0.2191,0.2234,0.2264,0.2362,0.2225,0.2215,0.2061,0.2033,0.2287,0.2273,0.2393,0.2392,0.2391,0.2391,0,0.1547,0.1549,0.1563,0.1593,0.1597,0.1635,0.1705,0.1765,0.1856,0.1957,0.1977,0.2066,0.2145,0.2207,0.2321,0.2295,0.2341,0.2316,0.2113,0.2074,0.2162,0.2149,0.2236,0.2232,0.2228,0.2225,0.2223,0,0.1534,0.153,0.1577,0.1586,0.1594,0.1646,0.1681,0.1766,0.1837,0.1982,0.2017,0.2098,0.2121,0.2198,0.218,0.2202,0.2276,0.2028,0.1941,0.2168,0.2151,0.2143,0.2134,0.1797,0.1792,0.1787,0.1783,0,0.1505,0.1535,0.1536,0.1595,0.162,0.1649,0.1704,0.1745,0.1864,0.1936,0.2008,0.2022,0.2052,0.1952,0.1937,0.1932,0.2005,0.1927,0.2265,0.183,0.1754,0.1736,0.1743,0.1742,0.1746,0.1749,0.1751,0.1753,0.1491,0.1519,0.1547,0.1588,0.1613,0.1629,0.1635,0.1688,0.1751,0.1798,0.1892,0.1835,0.1835,0.1676,0.1633,0.1592,0.1736,0.1661,0.1677,0.1698,0.1594,0.1513,0.1437,0.1439,0.1441,0.1443,0.1445,0,0.1468,0.1505,0.153,0.1561,0.1566,0.1621,0.1629,0.1589,0.1596,0.1636,0.1642,0.1457,0.1357,0.1366,0.123,0.1207,0.1221,0.1154,0.1175,0.1216,0.1253,0.1128,0.0847,0.0845,0.0843,0.0842,0,0,0.1454,0.1459,0.1475,0.1485,0.1529,0.1501,0.149,0.1407,0.1375,0.1283,0.124,0.1279,0.1315,0.1068,0.103,0.0918,0.1062,0.0871,0.1353,0.1419,0.1454,0.1546,0.1399,0,0,0,0,0]},{"header":{"parameterUnit":"m.s-1","parameterCategory":2,"la1":30.2991,"la2":30.254,"lo1":-89.0895,"lo2":-89.0444,"dy":0.0017,"dx":0.0017,"nx":28,"ny":28,"refTime":"2025-03-25T21:00:00:Z","depth":"2","parameterNumber":3,"parameterNumberName":"V-component_of_CURRENTS"},"data":[0,0,0,0,0,0,0,0,0,0,0,0,0,0,0,0,0,0,0,0,0,0,0,0,0,0,0,0,0,0,0,0,0,0,0,0,0,0,0,0,0,0,0,0,0,0,0,0,0,0,0,0,0,0,0,0,0,0,0.0229,0.023,0,0.0243,0.0243,0.0243,0.0233,0.0233,0.0233,0.0232,0.0241,0.0241,0.0242,0,0,0,0,0,0,0,0,0,0,0,0,0,0.0166,0.0167,0.0229,0.023,0.023,0.0243,0.0243,0.0243,0.0233,0.0233,0.0233,0.0232,0.0241,0.0241,0.0242,0,0,0,0,0,0,0,0,0,0,0,0,0,0.0185,0.0167,0.0229,0.0229,0.023,0.0243,0.0243,0.0243,0.0233,0.0233,0.0233,0.0232,0.0241,0.0241,0.0242,0.0249,0,0,0.0244,0.0244,0,0,0,0,0,0,0,0,0.0184,0.0187,0.0229,0.023,0.023,0.0239,0.0224,0.0246,0.0233,0.0228,0.0232,0.0232,0.0242,0.0243,0.0241,0.0249,0.025,0.0244,0.0244,0.0244,0.0244,0,0,0,0,0,0,0,0.0182,0.0186,0.0231,0.023,0.023,0.0219,0.0221,0.0227,0.0233,0.0229,0.0229,0.0236,0.0242,0.024,0.0241,0.025,0.0244,0.0244,0.0244,0.0245,0.0234,0.0233,0,0,0,0,0,0,0.019,0.0185,0.0231,0.0232,0.021,0.0221,0.0223,0.0234,0.0234,0.0234,0.0236,0.0235,0.024,0.0241,0.0241,0.0248,0.0244,0.0245,0.0245,0.0235,0.0234,0.0233,0,0,0,0,0,0,0.0188,0.0194,0.0231,0.0211,0.0215,0.0223,0.0234,0.0234,0.0231,0.024,0.024,0.0233,0.024,0.0241,0.0241,0.0249,0.0245,0.0245,0.0235,0.0234,0.0234,0.0264,0,0,0,0,0,0,0.0186,0.0193,0.0198,0.0212,0.0217,0.0246,0.0235,0.0235,0.0237,0.0236,0.0237,0.0238,0.0239,0.024,0.0242,0.0249,0.0246,0.0236,0.0235,0.0234,0.0263,0.0264,0.0264,0,0,0,0,0,0.0184,0.0201,0.0198,0.0204,0.0225,0.0247,0.0248,0.0249,0.0237,0.0243,0.0234,0.0238,0.0234,0.024,0.0242,0.025,0.0237,0.0235,0.0234,0.0263,0.0264,0.0264,0,0,0,0,0,0,0.0177,0.0202,0.0199,0.0222,0.0234,0.0246,0.0252,0.0249,0.0245,0.0239,0.0237,0.0237,0.0241,0.0234,0.0242,0.024,0.0233,0.0232,0.0255,0.0255,0.0256,0.0267,0.0246,0,0,0,0,0,0.0178,0.0196,0.0214,0.0231,0.0236,0.0239,0.0245,0.0247,0.025,0.0247,0.0245,0.0236,0.0236,0.0237,0.0236,0.0239,0.024,0.0241,0.0241,0.0242,0.0249,0.0255,0.0258,0.0229,0.0229,0.0229,0,0,0.0176,0.0196,0.0203,0.023,0.0235,0.0249,0.0242,0.0255,0.0265,0.025,0.0252,0.0243,0.0236,0.024,0.024,0.0237,0.0248,0.024,0.0241,0.0248,0.0254,0.0258,0.026,0.0228,0.0228,0.0228,0,0,0.0193,0.0202,0.0221,0.0234,0.0253,0.0257,0.026,0.0268,0.0269,0.0273,0.026,0.0252,0.0251,0.0248,0.0247,0.0247,0.0251,0.0241,0.0257,0.0263,0.0266,0.0269,0.027,0.0272,0.024,0.024,0.0241,0,0.0185,0.0221,0.0229,0.0252,0.0266,0.026,0.028,0.0281,0.0287,0.0294,0.0278,0.0271,0.0258,0.027,0.0259,0.0252,0.0253,0.0261,0.0266,0.0269,0.0271,0.0272,0.0274,0.0242,0.0242,0.0241,0.0241,0,0.022,0.0243,0.0256,0.0282,0.0294,0.0314,0.032,0.0324,0.0317,0.032,0.0328,0.0306,0.0309,0.0292,0.0274,0.0283,0.0278,0.027,0.0272,0.0277,0.0276,0.0278,0.0244,0.0243,0.0243,0.0242,0,0,0.0214,0.0268,0.0272,0.0299,0.0315,0.0337,0.0345,0.0367,0.0392,0.0372,0.0404,0.0368,0.0359,0.0354,0.0333,0.0319,0.0322,0.0298,0.0298,0.0312,0.0335,0.03,0.0299,0.032,0.0321,0.0321,0.0327,0,0.0236,0.0294,0.031,0.0356,0.0384,0.0387,0.0405,0.0419,0.0428,0.0456,0.0429,0.045,0.0385,0.0396,0.0369,0.0342,0.033,0.0321,0.0317,0.0317,0.0296,0.0301,0.0315,0.0319,0.0329,0.0329,0.033,0,0.0262,0.0304,0.0355,0.0415,0.0427,0.0449,0.0494,0.0513,0.0536,0.0546,0.0548,0.0543,0.0522,0.0474,0.0423,0.0422,0.0379,0.0346,0.0346,0.0307,0.0286,0.0315,0.0322,0.0333,0.0333,0.0333,0.0333,0,0.0273,0.0337,0.0385,0.0403,0.0458,0.0485,0.051,0.0539,0.0579,0.0615,0.0654,0.0626,0.0633,0.0571,0.0483,0.0464,0.0431,0.0405,0.0334,0.0331,0.0339,0.0335,0.0378,0.0378,0.0378,0.0378,0.0378,0,0.0302,0.0343,0.04,0.0431,0.05,0.0519,0.0595,0.0614,0.0665,0.0728,0.0708,0.0752,0.0657,0.0626,0.053,0.0437,0.0471,0.0341,0.0332,0.0346,0.0344,0.0351,0.0348,0.0378,0.0378,0.0378,0.0378,0,0.0317,0.0349,0.0414,0.0481,0.051,0.0559,0.0656,0.0723,0.0748,0.0833,0.0854,0.0854,0.0805,0.0706,0.0613,0.0509,0.0422,0.0383,0.0399,0.039,0.0306,0.0304,0.031,0.0309,0.0308,0.0307,0.0307,0,0.0335,0.037,0.0452,0.0506,0.0546,0.0629,0.0703,0.0757,0.0832,0.0896,0.0948,0.0932,0.092,0.0766,0.0604,0.0453,0.0426,0.0358,0.0311,0.031,0.0301,0.03,0.03,0.0336,0.0336,0.0336,0.0335,0,0.0379,0.04,0.0459,0.0561,0.0649,0.0749,0.085,0.0922,0.0989,0.104,0.109,0.108,0.0943,0.0788,0.0581,0.0474,0.0377,0.0344,0.0366,0.0339,0.0332,0.0323,0.0323,0.0332,0.0333,0.0333,0.0333,0.0333,0.0414,0.0463,0.0539,0.0633,0.0736,0.0857,0.0935,0.1036,0.1129,0.1179,0.117,0.1118,0.097,0.068,0.0524,0.0352,0.0357,0.028,0.0283,0.0286,0.0276,0.0265,0.0252,0.0252,0.0252,0.0252,0.0252,0,0.0476,0.0528,0.0618,0.073,0.0834,0.0876,0.1029,0.1086,0.118,0.12,0.1193,0.1009,0.0858,0.068,0.043,0.0281,0.0277,0.0223,0.0259,0.0263,0.0266,0.0256,0.0227,0.0227,0.0226,0.0226,0,0,0.0517,0.0608,0.0645,0.0792,0.0867,0.0988,0.1067,0.1133,0.1164,0.1159,0.1102,0.1051,0.087,0.0676,0.0501,0.0363,0.0337,0.0327,0.0364,0.0432,0.0436,0.0319,0.0311,0,0,0,0,0]}],[{"header":{"parameterUnit":"m.s-1","parameterCategory":2,"la1":30.2991,"la2":30.254,"lo1":-89.0895,"lo2":-89.0444,"dy":0.0017,"dx":0.0017,"nx":28,"ny":28,"refTime":"2025-03-25T21:00:00:Z","depth":"4","parameterNumber":2,"parameterNumberName":"U-component_of_CURRENTS"},"data":[0,0,0,0,0,0,0,0,0,0,0,0,0,0,0,0,0,0,0,0,0,0,0,0,0,0,0,0,0,0,0,0,0,0,0,0,0,0,0,0,0,0,0,0,0,0,0,0,0,0,0,0,0,0,0,0,0,0,0.0757,0.0758,0,0.0774,0.0775,0.0775,0.0808,0.0808,0.0809,0.081,0.0834,0.0834,0.0834,0,0,0,0,0,0,0,0,0,0,0,0,0,0.0746,0.0746,0.0757,0.0758,0.0758,0.0774,0.0775,0.0775,0.0808,0.0808,0.0809,0.081,0.0834,0.0834,0.0834,0,0,0,0,0,0,0,0,0,0,0,0,0,0.0756,0.0746,0.0757,0.0776,0.0778,0.0774,0.0775,0.0775,0.0807,0.0808,0.0809,0.081,0.0834,0.0834,0.0834,0.0817,0,0,0.0835,0.0835,0,0,0,0,0,0,0,0,0.0755,0.0756,0.0773,0.0775,0.0777,0.079,0.078,0.0789,0.0807,0.0796,0.081,0.0811,0.0819,0.082,0.0822,0.0818,0.0819,0.0835,0.0835,0.0835,0.0835,0,0,0,0,0,0,0,0.0755,0.0756,0.0764,0.0773,0.0775,0.0781,0.0783,0.0781,0.0803,0.0798,0.08,0.0801,0.082,0.0822,0.0823,0.0819,0.0835,0.0835,0.0835,0.0835,0.0894,0.0895,0,0,0,0,0,0,0.0751,0.0755,0.0764,0.0765,0.0768,0.078,0.0783,0.0785,0.0803,0.0806,0.08,0.0802,0.0821,0.0823,0.0824,0.0869,0.0835,0.0835,0.0835,0.0892,0.0894,0.0896,0,0,0,0,0,0,0.0751,0.0752,0.0763,0.076,0.0762,0.0779,0.0781,0.0785,0.0808,0.0805,0.0808,0.0822,0.0822,0.0824,0.0846,0.0867,0.0835,0.0835,0.0891,0.0893,0.0895,0.0917,0,0,0,0,0,0,0.0751,0.0752,0.0762,0.076,0.0762,0.0773,0.078,0.0784,0.0805,0.0809,0.0824,0.0826,0.0823,0.0846,0.0846,0.0867,0.0835,0.0889,0.0892,0.0894,0.0914,0.0919,0.0924,0,0,0,0,0,0.075,0.0748,0.0762,0.0764,0.0772,0.0773,0.0775,0.079,0.0806,0.0815,0.0833,0.0827,0.0864,0.0846,0.0846,0.0868,0.0887,0.0891,0.0894,0.0912,0.0918,0.0924,0,0,0,0,0,0,0.0743,0.0751,0.0767,0.0768,0.0779,0.0779,0.0788,0.0801,0.0822,0.0835,0.0835,0.0838,0.0869,0.0868,0.0848,0.0897,0.0879,0.0882,0.0892,0.0898,0.0903,0.0902,0.0835,0,0,0,0,0,0.0748,0.0755,0.0763,0.0768,0.0774,0.0788,0.0795,0.0809,0.0821,0.0832,0.0841,0.086,0.0879,0.0888,0.09,0.0917,0.0926,0.0936,0.0941,0.0945,0.0947,0.0987,0.0995,0.0907,0.0907,0.0907,0,0,0.0749,0.0752,0.076,0.0769,0.078,0.0791,0.0795,0.0812,0.0826,0.083,0.0856,0.0875,0.0889,0.0914,0.0929,0.0917,0.0977,0.0949,0.0952,0.0952,0.0991,0.1,0.1008,0.0909,0.0909,0.0908,0,0,0.0746,0.0758,0.0767,0.0776,0.0795,0.0803,0.0813,0.0829,0.0843,0.087,0.0883,0.0915,0.0936,0.0949,0.0959,0.0998,0.1003,0.1012,0.1031,0.107,0.1077,0.1084,0.1107,0.1115,0.1012,0.1012,0.1012,0,0.0756,0.0758,0.0769,0.0778,0.0784,0.0812,0.0822,0.0837,0.0861,0.0871,0.0887,0.0945,0.0953,0.0987,0.1005,0.1007,0.1029,0.1002,0.1075,0.1082,0.1088,0.111,0.1119,0.1014,0.1014,0.1014,0.1013,0,0.0753,0.0765,0.0767,0.0791,0.0802,0.0812,0.0833,0.0853,0.0881,0.09,0.0949,0.0975,0.1013,0.1024,0.1026,0.1078,0.1079,0.1076,0.1055,0.1098,0.1119,0.1127,0.1016,0.1015,0.1015,0.1015,0,0,0.0751,0.0766,0.0771,0.0778,0.0808,0.0811,0.0838,0.0861,0.0886,0.093,0.0969,0.1011,0.1044,0.1059,0.1077,0.1109,0.1169,0.1116,0.1117,0.1129,0.1256,0.1145,0.1144,0.1186,0.1188,0.1189,0.1251,0,0.0752,0.076,0.077,0.0786,0.079,0.0815,0.0836,0.0865,0.0902,0.0947,0.0994,0.1044,0.1053,0.1089,0.1126,0.1164,0.1194,0.1152,0.122,0.1222,0.1111,0.1151,0.1195,0.1258,0.126,0.1261,0.1262,0,0.0747,0.0749,0.076,0.0774,0.0781,0.0801,0.0835,0.086,0.0924,0.0958,0.1025,0.1069,0.1137,0.1141,0.1231,0.121,0.1237,0.1258,0.1261,0.1154,0.1127,0.1208,0.1278,0.1277,0.1276,0.1274,0.1273,0,0.0717,0.074,0.0743,0.0749,0.0776,0.079,0.0817,0.0869,0.0902,0.0981,0.1035,0.1109,0.1178,0.1226,0.1275,0.1269,0.1362,0.1355,0.1277,0.1269,0.134,0.1332,0.1411,0.1411,0.1411,0.1411,0.1411,0,0.0688,0.0692,0.0735,0.0729,0.0748,0.078,0.0817,0.0849,0.0931,0.0982,0.1056,0.1118,0.1208,0.127,0.1296,0.131,0.1383,0.1284,0.128,0.1348,0.134,0.1345,0.1337,0.1413,0.1412,0.1412,0.1412,0,0.0637,0.0665,0.0671,0.0709,0.0729,0.0745,0.0818,0.0845,0.0934,0.1011,0.1047,0.1157,0.123,0.1287,0.1364,0.1333,0.1351,0.1332,0.1396,0.1395,0.1228,0.1221,0.1259,0.1255,0.1252,0.125,0.1248,0,0.0605,0.0605,0.0653,0.0666,0.0685,0.0727,0.0755,0.0836,0.0876,0.1022,0.1055,0.1164,0.1222,0.1253,0.1304,0.1326,0.1309,0.1301,0.1264,0.1221,0.1215,0.1211,0.1208,0.1244,0.1243,0.1242,0.1241,0,0.0543,0.0573,0.0577,0.0614,0.0644,0.0671,0.0726,0.0755,0.0857,0.0957,0.1043,0.1088,0.1164,0.1205,0.1221,0.1235,0.1295,0.1271,0.1277,0.1242,0.1203,0.1199,0.1199,0.1231,0.1233,0.1234,0.1234,0,0.0504,0.0503,0.053,0.0555,0.0593,0.061,0.0639,0.0698,0.0756,0.0922,0.0947,0.1063,0.116,0.1159,0.1177,0.1172,0.1159,0.1114,0.1128,0.1139,0.1066,0.0996,0.0962,0,0,0,0,0,0.0472,0.0466,0.0477,0.0494,0.0528,0.0558,0.062,0.0657,0.0768,0.0804,0.0878,0.0941,0.0993,0.1048,0.102,0.1101,0.1143,0.106,0.1092,0.1177,0.1188,0.111,0,0,0,0,0,0,0.0446,0.0448,0.0454,0.0449,0.0459,0.0486,0.0525,0.059,0.0617,0.0742,0.0779,0.0876,0.0938,0.1011,0.1006,0.1017,0.1012,0.1128,0.1124,0.1171,0.1181,0.119,0.1113,0,0,0,0,0]},{"header":{"parameterUnit":"m.s-1","parameterCategory":2,"la1":30.2991,"la2":30.254,"lo1":-89.0895,"lo2":-89.0444,"dy":0.0017,"dx":0.0017,"nx":28,"ny":28,"refTime":"2025-03-25T21:00:00:Z","depth":"4","parameterNumber":3,"parameterNumberName":"V-component_of_CURRENTS"},"data":[0,0,0,0,0,0,0,0,0,0,0,0,0,0,0,0,0,0,0,0,0,0,0,0,0,0,0,0,0,0,0,0,0,0,0,0,0,0,0,0,0,0,0,0,0,0,0,0,0,0,0,0,0,0,0,0,0,0,0.029,0.0291,0,0.0314,0.0314,0.0315,0.0329,0.0329,0.0329,0.033,0.0357,0.0357,0.0358,0,0,0,0,0,0,0,0,0,0,0,0,0,0.0243,0.0244,0.029,0.0291,0.0291,0.0314,0.0314,0.0315,0.0329,0.0329,0.0329,0.033,0.0356,0.0357,0.0358,0,0,0,0,0,0,0,0,0,0,0,0,0,0.0264,0.0244,0.029,0.0301,0.0303,0.0314,0.0314,0.0315,0.0329,0.0329,0.0329,0.033,0.0356,0.0357,0.0358,0.036,0,0,0.0361,0.0361,0,0,0,0,0,0,0,0,0.0263,0.0266,0.0299,0.0301,0.0302,0.0319,0.0308,0.033,0.0329,0.0319,0.033,0.033,0.0345,0.0346,0.035,0.0361,0.0363,0.0361,0.0361,0.0362,0.0362,0,0,0,0,0,0,0,0.0262,0.0265,0.0299,0.03,0.0301,0.03,0.0303,0.0312,0.033,0.032,0.0321,0.0324,0.0345,0.0349,0.0351,0.0363,0.0361,0.0362,0.0362,0.0363,0.0367,0.0366,0,0,0,0,0,0,0.026,0.0264,0.0299,0.03,0.0283,0.0301,0.0305,0.0313,0.033,0.0333,0.0324,0.0325,0.0347,0.0349,0.0352,0.0362,0.0362,0.0363,0.0363,0.0367,0.0367,0.0366,0,0,0,0,0,0,0.0259,0.0263,0.0298,0.0282,0.0287,0.0302,0.0311,0.0314,0.0322,0.0333,0.0336,0.0331,0.0347,0.035,0.0363,0.0363,0.0363,0.0364,0.0368,0.0367,0.0366,0.0379,0,0,0,0,0,0,0.0258,0.0263,0.027,0.0283,0.0288,0.0308,0.0311,0.0314,0.0324,0.0325,0.034,0.0342,0.0348,0.0362,0.0364,0.0365,0.0365,0.0368,0.0367,0.0367,0.0379,0.0379,0.0379,0,0,0,0,0,0.0256,0.0266,0.0271,0.0275,0.0297,0.0308,0.0311,0.0321,0.0324,0.033,0.0339,0.0342,0.0357,0.0363,0.0365,0.0366,0.0369,0.0368,0.0367,0.038,0.0379,0.0379,0,0,0,0,0,0,0.0248,0.0269,0.0274,0.029,0.0299,0.0311,0.0319,0.0324,0.0335,0.0337,0.0345,0.0349,0.0357,0.0357,0.0362,0.0361,0.036,0.0359,0.0369,0.0369,0.0368,0.0375,0.0365,0,0,0,0,0,0.0249,0.0265,0.0279,0.0291,0.0297,0.0307,0.0314,0.032,0.0331,0.0336,0.0346,0.035,0.0353,0.0359,0.0362,0.0369,0.0354,0.0366,0.0366,0.0366,0.0371,0.0346,0.0345,0.0363,0.0363,0.0363,0,0,0.0248,0.0263,0.027,0.029,0.0299,0.031,0.0312,0.0323,0.0333,0.0337,0.0354,0.0353,0.0354,0.036,0.0362,0.0363,0.035,0.0364,0.0365,0.037,0.0345,0.0343,0.0342,0.0362,0.0362,0.0362,0,0,0.0254,0.0267,0.0281,0.0293,0.0309,0.0314,0.0318,0.0331,0.0339,0.0351,0.0352,0.0353,0.0363,0.0363,0.0363,0.0362,0.0349,0.0358,0.0366,0.0343,0.0341,0.034,0.0309,0.0305,0.0359,0.0359,0.0359,0,0.025,0.0275,0.0285,0.0302,0.0315,0.0317,0.0332,0.0337,0.0352,0.0361,0.0358,0.0364,0.0364,0.0369,0.0366,0.0363,0.0344,0.0371,0.0343,0.0342,0.034,0.0309,0.0304,0.0359,0.0359,0.0359,0.0359,0,0.0268,0.0288,0.0297,0.0321,0.0331,0.0346,0.0354,0.0364,0.0369,0.0374,0.0381,0.0376,0.0381,0.0373,0.0372,0.0361,0.0348,0.0346,0.0347,0.0339,0.0307,0.0301,0.036,0.036,0.0359,0.0359,0,0,0.0262,0.0303,0.0307,0.0328,0.0347,0.036,0.0372,0.0389,0.0404,0.0401,0.0415,0.0406,0.0401,0.04,0.0391,0.0368,0.0335,0.0354,0.0352,0.0329,0.0274,0.0267,0.026,0.0327,0.0326,0.0326,0.0253,0,0.0275,0.0315,0.0329,0.0362,0.0384,0.0394,0.041,0.0422,0.0427,0.0437,0.0422,0.0429,0.0411,0.0413,0.0387,0.0354,0.0323,0.0354,0.0281,0.0279,0.0278,0.0255,0.0324,0.0249,0.0248,0.0247,0.0246,0,0.029,0.0319,0.0359,0.0401,0.0411,0.0429,0.046,0.0475,0.0481,0.0484,0.0478,0.0465,0.0441,0.0423,0.0353,0.0373,0.0325,0.0289,0.0286,0.0274,0.0262,0.026,0.0236,0.0237,0.0238,0.0239,0.0239,0,0.0293,0.034,0.0377,0.0392,0.0434,0.0456,0.0477,0.0494,0.0517,0.0515,0.0523,0.0488,0.0477,0.0412,0.034,0.0345,0.0252,0.0251,0.0194,0.0192,0.0217,0.0219,0.0192,0.0192,0.0192,0.0192,0.0193,0,0.0309,0.0339,0.0387,0.0409,0.0458,0.0479,0.0524,0.0536,0.0557,0.058,0.0552,0.055,0.0473,0.0415,0.0342,0.025,0.0251,0.019,0.0173,0.0222,0.0226,0.0212,0.0216,0.019,0.019,0.0191,0.0191,0,0.0312,0.0342,0.0389,0.0442,0.0464,0.05,0.0564,0.0596,0.0607,0.0632,0.0634,0.0595,0.052,0.0431,0.0321,0.026,0.0169,0.0134,0.0185,0.0173,0.0122,0.0127,0.0065,0.0064,0.0063,0.0063,0.0062,0,0.032,0.0346,0.0412,0.0446,0.0476,0.0536,0.0582,0.062,0.0651,0.0656,0.0666,0.0608,0.0567,0.0404,0.0308,0.0161,0.0143,0.0089,0.0111,0.012,0.0109,0.0115,0.0121,0.0061,0.0061,0.0061,0.0061,0,0.0332,0.0355,0.0391,0.0462,0.0519,0.0587,0.0649,0.0674,0.071,0.0717,0.0688,0.061,0.0523,0.0403,0.0288,0.0184,0.0122,0.0081,0.0082,0.0102,0.0114,0.0106,0.0112,0.0058,0.0058,0.0059,0.0059,0,0.0336,0.0362,0.0411,0.0476,0.0546,0.0618,0.0653,0.0691,0.0724,0.0725,0.0708,0.0617,0.0564,0.0413,0.0306,0.0205,0.0183,0.0148,0.0145,0.0147,0.0196,0.0224,0.0182,0,0,0,0,0,0.0341,0.0372,0.0425,0.0497,0.0567,0.0615,0.069,0.072,0.0749,0.0732,0.0722,0.0639,0.0486,0.0423,0.0321,0.0292,0.0165,0.0169,0.0123,0.0044,0.0047,0.009,0,0,0,0,0,0,0.034,0.0386,0.0418,0.0505,0.0558,0.0645,0.0696,0.0719,0.0711,0.0714,0.0637,0.06,0.0457,0.0539,0.0312,0.0283,0.0238,0.0101,0.0098,0.0042,0.0045,0.0047,0.0093,0,0,0,0,0]}]]